When you browse on this site, cookies collect data to enhance your experience and personalize the content and advertising you see.
Visit our Privacy Policy to learn more. By continuing to use the site, you agree to this use of cookies and data.
  • In Romania
  • List of Countries
  • For 7 days
  • Water Temperature
  • Satellite Maps
  • Weather Map
  • Weather Widgets
  • user-avatar
    Login

    Hourly Weather Arnedillo

    Today, 18 July, Thursday

    Time Temperature Precipitation Wind Pressure Humidity
    00:00 +16°C° 0 mm 3 mps 698 mmHg 87%
    01:00 +16°C° 0 mm 3 mps 698 mmHg 88%
    02:00 +15°C° 0 mm 2 mps 697 mmHg 88%
    03:00 +15°C° 0 mm 2 mps 697 mmHg 89%
    04:00 +15°C° 0 mm 2 mps 697 mmHg 87%
    05:00 +15°C° 0 mm 2 mps 697 mmHg 86%
    06:00 +15°C° 0 mm 2 mps 698 mmHg 84%
    07:00 +17°C° 0 mm 2 mps 698 mmHg 77%
    08:00 +19°C° 0 mm 2 mps 698 mmHg 70%
    09:00 +20°C° 0 mm 2 mps 699 mmHg 62%
    10:00 +23°C° 0 mm 2 mps 699 mmHg 56%
    11:00 +24°C° 0 mm 3 mps 699 mmHg 50%
    12:00 +26°C° 0 mm 3 mps 699 mmHg 44%
    13:00 +26°C° 0 mm 3 mps 699 mmHg 42%
    14:00 +27°C° 0 mm 3 mps 699 mmHg 39%
    15:00 +28°C° 0 mm 4 mps 698 mmHg 37%
    16:00 +27°C° 0 mm 4 mps 698 mmHg 40%
    17:00 +26°C° 0 mm 4 mps 698 mmHg 42%
    18:00 +25°C° 0 mm 4 mps 698 mmHg 45%
    19:00 +22°C° 0 mm 3 mps 698 mmHg 52%
    20:00 +20°C° 0 mm 2 mps 698 mmHg 59%
    21:00 +18°C° 0 mm 2 mps 698 mmHg 66%
    22:00 +18°C° 0 mm 2 mps 698 mmHg 65%
    23:00 +17°C° 0 mm 2 mps 698 mmHg 64%

    Tomorrow, 19 July, Friday

    Time Temperature Precipitation Wind Pressure Humidity
    00:00 +17°C° 0 mm 2 mps 698 mmHg 63%
    01:00 +17°C° 0 mm 2 mps 698 mmHg 61%
    02:00 +16°C° 0 mm 1 mps 698 mmHg 60%
    03:00 +16°C° 0 mm 1 mps 698 mmHg 58%
    04:00 +18°C° 0 mm 1 mps 698 mmHg 58%
    05:00 +18°C° 0 mm 1 mps 698 mmHg 58%
    06:00 +19°C° 0 mm 1 mps 698 mmHg 57%
    07:00 +21°C° 0 mm 1 mps 698 mmHg 53%
    08:00 +22°C° 0 mm 1 mps 698 mmHg 48%
    09:00 +24°C° 0 mm 1 mps 698 mmHg 43%
    10:00 +26°C° 0 mm 2 mps 698 mmHg 40%
    11:00 +28°C° 0 mm 3 mps 698 mmHg 37%
    12:00 +29°C° 0 mm 3 mps 698 mmHg 34%
    13:00 +30°C° 0 mm 3 mps 698 mmHg 33%
    14:00 +32°C° 0 mm 4 mps 697 mmHg 33%
    15:00 +32°C° 0 mm 4 mps 697 mmHg 33%
    16:00 +31°C° 0 mm 3 mps 697 mmHg 35%
    17:00 +30°C° 0 mm 3 mps 696 mmHg 38%
    18:00 +29°C° 0 mm 2 mps 696 mmHg 41%
    19:00 +28°C° 0 mm 2 mps 696 mmHg 44%
    20:00 +26°C° 0 mm 2 mps 696 mmHg 48%
    21:00 +25°C° 0 mm 1 mps 696 mmHg 51%
    22:00 +24°C° 0 mm 1 mps 696 mmHg 54%
    23:00 +24°C° 0 mm 1 mps 696 mmHg 58%

    Day after tomorrow, 20 July, Saturday

    Time Temperature Precipitation Wind Pressure Humidity
    00:00 +23°C° 0 mm 1 mps 697 mmHg 61%
    01:00 +22°C° 0 mm 1 mps 696 mmHg 65%
    02:00 +21°C° 0 mm 1 mps 696 mmHg 68%
    03:00 +21°C° 0 mm 1 mps 696 mmHg 72%
    04:00 +21°C° 0 mm 1 mps 697 mmHg 72%
    05:00 +21°C° 0 mm 1 mps 697 mmHg 72%
    06:00 +21°C° 0 mm 1 mps 697 mmHg 72%
    07:00 +23°C° 0 mm 2 mps 698 mmHg 64%
    08:00 +25°C° 0 mm 2 mps 698 mmHg 57%
    09:00 +27°C° 0 mm 3 mps 699 mmHg 49%
    10:00 +29°C° 0 mm 3 mps 699 mmHg 45%
    11:00 +30°C° 0 mm 3 mps 699 mmHg 41%
    12:00 +33°C° 0 mm 3 mps 699 mmHg 37%
    13:00 +33°C° 0 mm 3 mps 699 mmHg 36%
    14:00 +34°C° 0 mm 4 mps 699 mmHg 35%
    15:00 +34°C° 0 mm 4 mps 699 mmHg 34%
    16:00 +33°C° 0 mm 4 mps 699 mmHg 38%
    17:00 +32°C° 0 mm 4 mps 699 mmHg 41%
    18:00 +30°C° 0 mm 4 mps 699 mmHg 45%
    19:00 +28°C° 0 mm 3 mps 699 mmHg 56%
    20:00 +25°C° 0 mm 3 mps 699 mmHg 68%
    21:00 +23°C° 0 mm 2 mps 699 mmHg 79%
    22:00 +21°C° 0 mm 2 mps 699 mmHg 82%
    23:00 +21°C° 0 mm 1 mps 700 mmHg 84%

    21 July, Sunday

    Time Temperature Precipitation Wind Pressure Humidity
    00:00 +20°C° 0 mm 1 mps 700 mmHg 87%
    01:00 +20°C° 0 mm 1 mps 700 mmHg 88%
    02:00 +19°C° 0 mm 1 mps 700 mmHg 88%
    03:00 +19°C° 0 mm 1 mps 700 mmHg 89%
    04:00 +19°C° 0 mm 1 mps 700 mmHg 87%
    05:00 +20°C° 0 mm 1 mps 700 mmHg 85%
    06:00 +20°C° 0 mm 1 mps 700 mmHg 84%
    07:00 +22°C° 0 mm 1 mps 700 mmHg 75%
    08:00 +24°C° 0 mm 2 mps 701 mmHg 66%
    09:00 +26°C° 0 mm 2 mps 701 mmHg 57%
    10:00 +28°C° 0 mm 3 mps 701 mmHg 51%
    11:00 +30°C° 0 mm 3 mps 701 mmHg 44%
    12:00 +33°C° 0 mm 4 mps 701 mmHg 38%
    13:00 +34°C° 0 mm 4 mps 701 mmHg 35%
    14:00 +35°C° 0 mm 4 mps 701 mmHg 33%
    15:00 +36°C° 0 mm 4 mps 701 mmHg 31%
    16:00 +35°C° 0.1 mm 4 mps 701 mmHg 34%
    17:00 +34°C° 0.1 mm 4 mps 701 mmHg 37%
    18:00 +32°C° 0.1 mm 4 mps 701 mmHg 40%
    19:00 +29°C° 0.2 mm 4 mps 701 mmHg 46%
    20:00 +27°C° 0.2 mm 3 mps 702 mmHg 52%
    21:00 +25°C° 0.2 mm 2 mps 702 mmHg 58%
    22:00 +25°C° 0.2 mm 2 mps 702 mmHg 60%
    23:00 +24°C° 0.2 mm 2 mps 702 mmHg 61%

    22 July, Monday

    Time Temperature Precipitation Wind Pressure Humidity
    00:00 +24°C° 0.2 mm 1 mps 702 mmHg 62%
    01:00 +23°C° 0 mm 1 mps 701 mmHg 63%
    02:00 +23°C° 0 mm 1 mps 701 mmHg 64%
    03:00 +22°C° 0 mm 1 mps 700 mmHg 65%
    04:00 +23°C° 0 mm 1 mps 700 mmHg 64%
    05:00 +23°C° 0 mm 1 mps 701 mmHg 63%
    06:00 +23°C° 0 mm 1 mps 701 mmHg 62%
    07:00 +25°C° 0 mm 2 mps 701 mmHg 54%
    08:00 +27°C° 0 mm 2 mps 701 mmHg 47%
    09:00 +29°C° 0 mm 3 mps 701 mmHg 39%
    10:00 +32°C° 0.1 mm 4 mps 701 mmHg 35%
    11:00 +33°C° 0.1 mm 4 mps 701 mmHg 32%
    12:00 +35°C° 0.1 mm 5 mps 701 mmHg 29%
    13:00 +36°C° 0 mm 5 mps 701 mmHg 26%
    14:00 +37°C° 0 mm 5 mps 701 mmHg 24%
    15:00 +39°C° 0 mm 5 mps 701 mmHg 22%
    16:00 +36°C° 0 mm 5 mps 700 mmHg 24%
    17:00 +35°C° 0 mm 4 mps 700 mmHg 27%
    18:00 +34°C° 0 mm 4 mps 700 mmHg 30%
    19:00 +31°C° 0.1 mm 3 mps 700 mmHg 34%
    20:00 +30°C° 0.1 mm 3 mps 700 mmHg 39%
    21:00 +28°C° 0.1 mm 2 mps 700 mmHg 43%
    22:00 +27°C° 0.2 mm 2 mps 700 mmHg 46%
    23:00 +26°C° 0.2 mm 2 mps 700 mmHg 49%

    23 July, Tuesday

    Time Temperature Precipitation Wind Pressure Humidity
    00:00 +25°C° 0.2 mm 2 mps 700 mmHg 52%
    01:00 +24°C° 0 mm 2 mps 699 mmHg 52%
    02:00 +24°C° 0 mm 2 mps 699 mmHg 52%
    03:00 +23°C° 0 mm 2 mps 698 mmHg 53%
    04:00 +23°C° 0 mm 2 mps 698 mmHg 52%
    05:00 +24°C° 0 mm 2 mps 698 mmHg 52%
    06:00 +24°C° 0 mm 2 mps 698 mmHg 51%
    07:00 +26°C° 0 mm 3 mps 699 mmHg 45%
    08:00 +28°C° 0 mm 4 mps 699 mmHg 39%
    09:00 +30°C° 0 mm 4 mps 699 mmHg 33%
    10:00 +33°C° 0 mm 5 mps 699 mmHg 30%
    11:00 +34°C° 0 mm 5 mps 699 mmHg 28%
    12:00 +36°C° 0 mm 5 mps 699 mmHg 25%
    13:00 +37°C° 0 mm 5 mps 699 mmHg 23%
    14:00 +37°C° 0 mm 5 mps 698 mmHg 21%
    15:00 +39°C° 0 mm 5 mps 698 mmHg 19%
    16:00 +37°C° 0 mm 5 mps 698 mmHg 22%
    17:00 +36°C° 0 mm 6 mps 698 mmHg 24%
    18:00 +35°C° 0 mm 6 mps 697 mmHg 26%
    19:00 +33°C° 0.1 mm 5 mps 698 mmHg 30%
    20:00 +30°C° 0.1 mm 5 mps 698 mmHg 33%
    21:00 +28°C° 0.1 mm 4 mps 698 mmHg 37%
    22:00 +27°C° 0.1 mm 3 mps 697 mmHg 41%
    23:00 +26°C° 0.1 mm 2 mps 697 mmHg 45%
    Show more